Aérodrome :
LOGIN :

S'inscrire | Disclaimer

   EN    FR    IT 

 










Légende :    VFR   VFR Marginal   IFR   IFR Intensif   IFR Très Intensif
Visi : 
Plafond : 
>= 8 km
>= 3000ft
5 à 8 km
1000 à 3000 ft
1500m à 5 km
500 à 1000 ft
800 à 1500m
200 à 500 ft
< 800m
< 200 ft
Symboles :   Orages  Brouillard  Fortes neiges  Fortes précipitations  Vent > 20 kt
SIGMETs :   Divers  Orages  Givrage  Turbulence  Onde Orograph.  Cendres Volcan.







- Altitude de l'aérodrome : 36 ft
- Code IATA : LTQ
- Voir les cartes d'approche


LFAT - Le Touquet

DERNIER METAR :
  • 211930Z AUTO 21002KT CAVOK 18/16 Q1019

METARs EXPIRÉS :
  • 211900Z AUTO VRB02KT CAVOK 18/16 Q1019
  • 211830Z AUTO 30004KT 9999 BKN039 19/17 Q1019
  • 211800Z AUTO 28005KT 250V310 9999 FEW010 SCT039 20/17 Q1019 TEMPO BKN005
  • 211730Z AUTO 28005KT 250V310 9999 SCT012 BKN041 20/17 Q1019 TEMPO BKN005
  • 211700Z AUTO 25003KT 220V320 9999 BKN042 21/17 Q1019 TEMPO BKN005

Prévision TAF périmée.
ATIS : +33 3 21 06 62 84
Pas de NOTAMs connus pour ce terrain.



MET'MAP, la Météo Aéronautique d'un coup d'oeil ! - Copyright ORBIFLY Décembre 2007 - Disclaimer

ORBIFLY MET'MAP TEAM :

Programmation & Développement : Alexandra Zaïnal
Conception & Développement : Baudouin d'Aumeries
Co-Programmation & Développement : Marc-Olivier Méhu
Soutien technique & logistique : Manuel Goepfert

Contact : metmap@orbifly.com




SOURCES & CREDITS :

   NOAA